OK,51,38,673,51,2014-10-01T01:40:00,0,28072000,188198
OK,51,38,673,51,2014-10-01T01:45:00,0,28072443,188198
OK,51,38,673,51,2014-10-01T01:50:00,0,28072892,188198
OK,51,38,673,51,2014-10-01T01:55:00,0,28073339,188198
OK,51,38,673,51,2014-10-01T02:05:00,0,28074105,188198
OK,51,38,673,51,2014-10-01T02:10:00,0,28074554,188198
OK,59,32,673,59,2014-10-01T02:15:00,1,28074994,188198
OK,59,32,673,59,2014-10-01T02:20:00,0,28075443,188198
OK,59,32,673,59,2014-10-01T02:25:00,0,28075892,188198
OK,32,60,673,32,2014-10-01T02:30:00,1,28076275,188198
OK,58,33,673,58,2014-10-01T02:35:00,1,28076724,188198
OK,58,33,673,58,2014-10-01T02:40:00,0,28077173,188198
OK,58,33,673,58,2014-10-01T02:45:00,0,28077622,188198
OK,58,33,673,58,2014-10-01T02:50:00,0,28078025,188198
OK,58,33,673,58,2014-10-01T02:55:00,0,28078474,188198
OK,58,33,673,58,2014-10-01T03:00:00,0,28078919,188198
OK,58,33,673,58,2014-10-01T03:05:00,0,28079367,188198
OK,58,33,673,58,2014-10-01T03:10:00,0,28079810,188198
OK,58,33,673,58,2014-10-01T03:15:00,0,28080259,188198
OK,64,30,673,64,2014-10-01T03:20:00,1,28080593,188198
OK,64,30,673,64,2014-10-01T03:25:00,1,28081042,188198
OK,64,30,673,64,2014-10-01T03:30:00,0,28081491,188198
OK,64,30,673,64,2014-10-01T03:35:00,0,28081938,188198
OK,64,30,673,64,2014-10-01T03:40:00,0,28082387,188198
OK,64,30,673,64,2014-10-01T03:45:00,0,28082820,188198
OK,64,30,673,64,2014-10-01T03:50:00,0,28083252,188198
OK,60,32,673,60,2014-10-01T03:55:00,2,28083701,188198
OK,60,32,673,60,2014-10-01T04:00:00,2,28084150,188198
OK,75,25,673,75,2014-10-01T04:05:00,0,28084591,188198
OK,75,25,673,75,2014-10-01T04:10:00,0,28085016,188198
OK,75,25,673,75,2014-10-01T04:15:00,0,28085465,188198
OK,40,48,673,40,2014-10-01T04:20:00,1,28085910,188198
OK,51,38,673,51,2014-10-01T04:25:00,2,28086359,188198
OK,37,52,673,37,2014-10-01T04:30:00,3,28086801,188198
OK,37,52,673,37,2014-10-01T04:35:00,1,28087250,188198
OK,37,52,673,37,2014-10-01T04:40:00,0,28087695,188198
OK,37,52,673,37,2014-10-01T04:45:00,1,28088144,188198
OK,87,22,673,87,2014-10-01T04:50:00,8,28088568,188198
OK,88,22,673,88,2014-10-01T04:55:00,8,28089017,188198
OK,87,22,673,87,2014-10-01T05:00:00,3,28089447,188198
OK,60,32,673,60,2014-10-01T05:05:00,2,28089896,188198
OK,68,28,673,68,2014-10-01T05:10:00,3,28090345,188198
OK,70,27,673,70,2014-10-01T05:15:00,4,28090689,188198
OK,59,32,673,59,2014-10-01T05:20:00,2,28091138,188198
OK,94,20,673,94,2014-10-01T05:25:00,4,28091587,188198
OK,94,20,673,94,2014-10-01T05:30:00,7,28092004,188198
OK,89,21,673,89,2014-10-01T05:35:00,3,28092453,188198
OK,89,21,673,89,2014-10-01T05:40:00,0,28092897,188198
OK,111,17,673,111,2014-10-01T05:45:00,3,28093338,188198
OK,116,16,673,116,2014-10-01T05:50:00,5,28093769,188198
OK,179,10,673,179,2014-10-01T05:55:00,1,28094218,188198
OK,196,9,673,196,2014-10-01T06:00:00,3,28094629,188198
OK,211,9,673,211,2014-10-01T06:05:00,6,28095074,188198
OK,266,7,673,266,2014-10-01T06:10:00,6,28095521,188198
OK,163,11,673,163,2014-10-01T06:15:00,2,28095970,188198
OK,151,12,673,151,2014-10-01T06:20:00,10,28096383,188198
OK,144,13,673,144,2014-10-01T06:25:00,10,28096832,188198
OK,142,13,673,142,2014-10-01T06:30:00,3,28097266,188198
OK,91,21,673,91,2014-10-01T06:35:00,3,28097715,188198
OK,91,21,673,91,2014-10-01T06:40:00,3,28098164,188198
OK,187,10,673,187,2014-10-01T06:45:00,6,28098601,188198
OK,185,10,673,185,2014-10-01T06:50:00,6,28099045,188198
OK,79,24,673,79,2014-10-01T06:55:00,5,28099493,188198
OK,79,24,673,79,2014-10-01T07:00:00,3,28099836,188198
OK,71,27,673,71,2014-10-01T07:05:00,3,28100281,188198
OK,62,31,673,62,2014-10-01T07:10:00,3,28100592,188198
OK,78,24,673,78,2014-10-01T07:15:00,2,28101041,188198
OK,78,24,673,78,2014-10-01T07:20:00,2,28101412,188198
OK,67,29,673,67,2014-10-01T07:25:00,3,28101861,188198
OK,67,29,673,67,2014-10-01T07:30:00,3,28102297,188198
OK,67,29,673,67,2014-10-01T07:35:00,0,28102746,188198
OK,80,24,673,80,2014-10-01T07:40:00,3,28103173,188198
OK,78,24,673,78,2014-10-01T07:45:00,4,28103620,188198
OK,76,25,673,76,2014-10-01T07:50:00,1,28104065,188198
OK,76,25,673,76,2014-10-01T07:55:00,0,28104510,188198
OK,61,31,673,61,2014-10-01T08:00:00,2,28104951,188198
OK,61,31,673,61,2014-10-01T08:05:00,2,28105396,188198
OK,55,35,673,55,2014-10-01T08:10:00,3,28105836,188198
OK,65,29,673,65,2014-10-01T08:15:00,3,28106285,188198
OK,102,19,673,102,2014-10-01T08:20:00,2,28106722,188198
OK,92,21,673,92,2014-10-01T08:25:00,3,28107128,188198
OK,98,19,673,98,2014-10-01T08:30:00,2,28107560,188198
OK,98,19,673,98,2014-10-01T08:35:00,0,28108009,188198
OK,100,19,673,100,2014-10-01T08:40:00,1,28108448,188198
OK,107,18,673,107,2014-10-01T08:45:00,2,28108897,188198
OK,128,15,673,128,2014-10-01T08:50:00,2,28109325,188198
OK,142,13,673,142,2014-10-01T08:55:00,1,28109774,188198
OK,119,16,673,119,2014-10-01T09:00:00,2,28110117,188198
OK,163,11,673,163,2014-10-01T09:05:00,2,28110566,188198
OK,115,16,673,115,2014-10-01T09:10:00,3,28110989,188198
OK,92,21,673,92,2014-10-01T09:15:00,3,28111438,188198
OK,53,36,673,53,2014-10-01T09:20:00,1,28111867,188198
OK,53,36,673,53,2014-10-01T09:25:00,0,28112316,188198
OK,53,36,673,53,2014-10-01T09:30:00,0,28112657,188198
OK,56,34,673,56,2014-10-01T09:35:00,1,28113106,188198
OK,53,36,673,53,2014-10-01T09:40:00,2,28113530,188198
OK,77,25,673,77,2014-10-01T09:45:00,2,28113979,188198
OK,69,28,673,69,2014-10-01T09:50:00,4,28114411,188198
OK,77,25,673,77,2014-10-01T09:55:00,4,28114859,188198
OK,89,21,673,89,2014-10-01T10:00:00,1,28115214,188198
OK,88,22,673,88,2014-10-01T10:05:00,2,28115663,188198
OK,88,22,673,88,2014-10-01T10:10:00,2,28116075,188198
OK,109,17,673,109,2014-10-01T10:15:00,0,28116524,188198
OK,109,17,673,109,2014-10-01T10:20:00,0,28116932,188198
OK,109,17,673,109,2014-10-01T10:25:00,0,28117381,188198
OK,79,24,673,79,2014-10-01T10:30:00,4,28117806,188198
OK,78,24,673,78,2014-10-01T10:35:00,4,28118255,188198
OK,98,19,673,98,2014-10-01T10:40:00,3,28118700,188198
OK,98,19,673,98,2014-10-01T10:45:00,3,28119147,188198
OK,79,24,673,79,2014-10-01T10:50:00,3,28119591,188198
OK,79,24,673,79,2014-10-01T10:55:00,1,28120039,188198
OK,70,27,673,70,2014-10-01T11:00:00,2,28120487,188198
OK,49,39,673,49,2014-10-01T11:05:00,4,28120936,188198
OK,81,24,673,81,2014-10-01T11:10:00,5,28121319,188198
OK,102,19,673,102,2014-10-01T11:15:00,5,28121768,188198
OK,71,27,673,71,2014-10-01T11:20:00,2,28122206,188198
OK,73,26,673,73,2014-10-01T11:25:00,0,28122655,188198
OK,73,26,673,73,2014-10-01T11:30:00,0,28123096,188198
OK,73,26,673,73,2014-10-01T11:35:00,0,28123545,188198
OK,73,26,673,73,2014-10-01T11:40:00,0,28123977,188198
OK,94,20,673,94,2014-10-01T11:45:00,4,28124426,188198
OK,94,20,673,94,2014-10-01T11:50:00,5,28124828,188198
OK,66,29,673,66,2014-10-01T11:55:00,2,28125277,188198
OK,57,34,673,57,2014-10-01T12:00:00,3,28125706,188198
OK,52,37,673,52,2014-10-01T12:05:00,2,28126155,188198
OK,64,30,673,64,2014-10-01T12:10:00,1,28126507,188198
OK,64,30,673,64,2014-10-01T12:15:00,0,28126956,188198
OK,92,21,673,92,2014-10-01T12:20:00,1,28127405,188198
OK,92,21,673,92,2014-10-01T12:25:00,1,28127854,188198
OK,92,21,673,92,2014-10-01T12:30:00,0,28128282,188198
OK,92,21,673,92,2014-10-01T12:35:00,0,28128731,188198
OK,68,28,673,68,2014-10-01T12:40:00,4,28129166,188198
OK,68,28,673,68,2014-10-01T12:45:00,4,28129615,188198
OK,41,47,673,41,2014-10-01T12:50:00,1,28130049,188198
OK,41,47,673,41,2014-10-01T12:55:00,1,28130498,188198
OK,41,47,673,41,2014-10-01T13:00:00,0,28130926,188198
OK,106,18,673,106,2014-10-01T13:05:00,1,28131375,188198
OK,116,16,673,116,2014-10-01T13:10:00,4,28131812,188198
OK,88,22,673,88,2014-10-01T13:15:00,4,28132261,188198
OK,55,35,673,55,2014-10-01T13:20:00,2,28132699,188198
OK,109,17,673,109,2014-10-01T13:25:00,2,28133146,188198
OK,125,15,673,125,2014-10-01T13:30:00,2,28133584,188198
OK,130,14,673,130,2014-10-01T13:35:00,1,28134033,188198
OK,148,13,673,148,2014-10-01T13:40:00,3,28134472,188198
OK,107,18,673,107,2014-10-01T13:45:00,5,28134921,188198
OK,107,18,673,107,2014-10-01T13:50:00,5,28135340,188198
OK,146,13,673,146,2014-10-01T13:55:00,3,28135789,188198
OK,105,18,673,105,2014-10-01T14:00:00,3,28136226,188198
OK,235,8,673,235,2014-10-01T14:05:00,1,28136675,188198
OK,199,9,673,199,2014-10-01T14:10:00,5,28137115,188198
OK,187,10,673,187,2014-10-01T14:15:00,4,28137564,188198
OK,233,8,673,233,2014-10-01T14:20:00,4,28137998,188198
OK,254,7,673,254,2014-10-01T14:25:00,3,28138447,188198
OK,257,7,673,257,2014-10-01T14:30:00,2,28138875,188198
OK,416,4,673,416,2014-10-01T14:35:00,2,28139324,188198
OK,440,4,673,440,2014-10-01T14:40:00,5,28139735,188198
OK,492,3,673,492,2014-10-01T14:45:00,2,28140184,188198
OK,449,4,673,449,2014-10-01T14:50:00,2,28140626,188198
OK,447,4,673,447,2014-10-01T14:55:00,3,28141075,188198
OK,341,5,673,341,2014-10-01T15:00:00,1,28141501,188198
OK,249,7,673,249,2014-10-01T15:05:00,4,28141950,188198
OK,240,8,673,240,2014-10-01T15:10:00,5,28142378,188198
OK,188,10,673,188,2014-10-01T15:15:00,2,28142827,188198
OK,188,10,673,188,2014-10-01T15:20:00,2,28143254,188198
OK,123,15,673,123,2014-10-01T15:25:00,3,28143703,188198
OK,100,19,673,100,2014-10-01T15:30:00,7,28144151,188198
OK,73,26,673,73,2014-10-01T15:35:00,3,28144600,188198
OK,93,20,673,93,2014-10-01T15:40:00,2,28145021,188198
OK,105,18,673,105,2014-10-01T15:45:00,1,28145435,188198
OK,53,36,673,53,2014-10-01T15:50:00,2,28145884,188198
OK,58,33,673,58,2014-10-01T15:55:00,3,28146333,188198
OK,74,26,673,74,2014-10-01T16:00:00,4,28146782,188198
OK,62,31,673,62,2014-10-01T16:05:00,2,28147190,188198
OK,63,30,673,63,2014-10-01T16:10:00,0,28147634,188198
OK,63,30,673,63,2014-10-01T16:15:00,0,28148083,188198
OK,99,19,673,99,2014-10-01T16:20:00,1,28148484,188198
OK,99,19,673,99,2014-10-01T16:25:00,3,28148933,188198
OK,108,18,673,108,2014-10-01T16:30:00,3,28149372,188198
OK,118,16,673,118,2014-10-01T16:35:00,2,28149821,188198
OK,34,57,673,34,2014-10-01T16:40:00,1,28150247,188198
OK,34,57,673,34,2014-10-01T16:45:00,0,28150696,188198
OK,86,22,673,86,2014-10-01T16:50:00,1,28151114,188198
OK,63,30,673,63,2014-10-01T16:55:00,3,28151563,188198
OK,62,31,673,62,2014-10-01T17:05:00,0,28152012,188198
OK,62,31,673,62,2014-10-01T17:10:00,0,28152461,188198
OK,59,32,673,59,2014-10-01T17:15:00,2,28152907,188198
OK,68,28,673,68,2014-10-01T17:20:00,3,28153354,188198
OK,94,20,673,94,2014-10-01T17:25:00,3,28153803,188198
OK,43,45,673,43,2014-10-01T17:30:00,1,28154213,188198
OK,41,47,673,41,2014-10-01T17:35:00,2,28154662,188198
OK,48,40,673,48,2014-10-01T17:40:00,1,28155104,188198
OK,48,40,673,48,2014-10-01T17:45:00,3,28155552,188198
OK,42,46,673,42,2014-10-01T17:50:00,3,28155970,188198
OK,57,34,673,57,2014-10-01T17:55:00,2,28156419,188198
OK,74,26,673,74,2014-10-01T18:00:00,1,28156867,188198
OK,74,26,673,74,2014-10-01T18:05:00,0,28157306,188198
OK,61,31,673,61,2014-10-01T18:10:00,1,28157736,188198
OK,61,31,673,61,2014-10-01T18:15:00,1,28158184,188198
OK,61,31,673,61,2014-10-01T18:20:00,0,28158628,188198
OK,30,64,673,30,2014-10-01T18:25:00,1,28159073,188198
OK,85,22,673,85,2014-10-01T18:30:00,1,28159509,188198
OK,85,22,673,85,2014-10-01T18:35:00,0,28159855,188198
OK,85,22,673,85,2014-10-01T18:40:00,0,28160304,188198
OK,85,22,673,85,2014-10-01T18:45:00,0,28160753,188198
OK,56,34,673,56,2014-10-01T18:50:00,1,28161191,188198
OK,47,41,673,47,2014-10-01T18:55:00,2,28161640,188198
OK,39,49,673,39,2014-10-01T19:00:00,1,28162057,188198
OK,39,49,673,39,2014-10-01T19:05:00,0,28162506,188198
OK,47,41,673,47,2014-10-01T19:10:00,2,28162900,188198
OK,43,45,673,43,2014-10-01T19:15:00,3,28163339,188198
OK,32,60,673,32,2014-10-01T19:20:00,1,28163787,188198
OK,61,31,673,61,2014-10-01T19:25:00,1,28164236,188198
OK,61,31,673,61,2014-10-01T19:30:00,0,28164667,188198
OK,61,31,673,61,2014-10-01T19:35:00,0,28165116,188198
OK,44,44,673,44,2014-10-01T19:40:00,1,28165541,188198
OK,44,44,673,44,2014-10-01T19:45:00,1,28165989,188198
OK,44,44,673,44,2014-10-01T19:50:00,0,28166428,188198
OK,44,44,673,44,2014-10-01T19:55:00,0,28166792,188198
OK,44,44,673,44,2014-10-01T20:00:00,0,28167241,188198
OK,44,44,673,44,2014-10-01T20:05:00,0,28167670,188198
OK,44,44,673,44,2014-10-01T20:10:00,0,28168103,188198
OK,44,44,673,44,2014-10-01T20:15:00,0,28168552,188198
OK,41,47,673,41,2014-10-01T20:20:00,1,28168997,188198
OK,38,51,673,38,2014-10-01T20:25:00,2,28169446,188198
OK,55,35,673,55,2014-10-01T20:30:00,2,28169894,188198
OK,75,25,673,75,2014-10-01T20:35:00,1,28170320,188198
OK,75,25,673,75,2014-10-01T20:40:00,0,28170765,188198
OK,75,25,673,75,2014-10-01T20:45:00,0,28171213,188198
OK,75,25,673,75,2014-10-01T20:50:00,0,28171650,188198
OK,75,25,673,75,2014-10-01T20:55:00,0,28172096,188198
OK,75,25,673,75,2014-10-01T21:00:00,0,28172544,188198
OK,75,25,673,75,2014-10-01T21:05:00,0,28172990,188198
OK,93,20,673,93,2014-10-01T21:10:00,1,28173436,188198
OK,93,20,673,93,2014-10-01T21:15:00,0,28173885,188198
OK,93,20,673,93,2014-10-01T21:20:00,0,28174326,188198
OK,93,20,673,93,2014-10-01T21:25:00,0,28174775,188198
OK,93,20,673,93,2014-10-01T21:30:00,0,28175199,188198
OK,93,20,673,93,2014-10-01T21:35:00,0,28175597,188198
OK,93,20,673,93,2014-10-01T21:40:00,0,28176046,188198
OK,93,20,673,93,2014-10-01T21:45:00,0,28176495,188198
OK,73,26,673,73,2014-10-01T21:50:00,2,28176944,188198
OK,75,25,673,75,2014-10-01T21:55:00,1,28177300,188198
OK,75,25,673,75,2014-10-01T22:00:00,0,28177740,188198
OK,75,25,673,75,2014-10-01T22:05:00,0,28178186,188198
OK,75,25,673,75,2014-10-01T22:10:00,0,28178635,188198
OK,75,25,673,75,2014-10-01T22:15:00,0,28179082,188198
OK,75,25,673,75,2014-10-01T22:20:00,0,28179516,188198
OK,75,25,673,75,2014-10-01T22:25:00,0,28179959,188198
OK,75,25,673,75,2014-10-01T22:30:00,0,28180406,188198
OK,75,25,673,75,2014-10-01T22:35:00,0,28180804,188198
OK,75,25,673,75,2014-10-01T22:40:00,0,28181253,188198
OK,75,25,673,75,2014-10-01T22:45:00,0,28181677,188198
OK,75,25,673,75,2014-10-01T22:50:00,0,28182125,188198
OK,75,25,673,75,2014-10-01T22:55:00,0,28182572,188198
OK,75,25,673,75,2014-10-01T23:00:00,0,28183021,188198
OK,75,25,673,75,2014-10-01T23:05:00,0,28183438,188198
OK,75,25,673,75,2014-10-01T23:10:00,0,28183871,188198
OK,69,28,673,69,2014-10-01T23:15:00,1,28184316,188198
OK,69,28,673,69,2014-10-01T23:20:00,0,28184765,188198
OK,69,28,673,69,2014-10-01T23:25:00,0,28185200,188198
OK,69,28,673,69,2014-10-01T23:30:00,0,28185648,188198
OK,69,28,673,69,2014-10-01T23:40:00,0,28186471,188198
OK,69,28,673,69,2014-10-01T23:50:00,0,28187312,188198
OK,69,28,673,69,2014-10-01T23:55:00,0,28187760,188198
OK,69,28,673,69,2014-10-02T00:00:00,0,28188209,188198
OK,69,28,673,69,2014-10-02T00:05:00,0,28188648,188198
OK,69,28,673,69,2014-10-02T00:10:00,0,28189086,188198
OK,69,28,673,69,2014-10-02T00:15:00,0,28189535,188198
OK,69,28,673,69,2014-10-02T00:20:00,0,28189957,188198
OK,69,28,673,69,2014-10-02T00:25:00,0,28190402,188198
OK,69,28,673,69,2014-10-02T00:30:00,0,28190759,188198
OK,69,28,673,69,2014-10-02T00:35:00,0,28191208,188198
OK,69,28,673,69,2014-10-02T00:45:00,0,28191963,188198
OK,69,28,673,69,2014-10-02T00:50:00,0,28192412,188198
OK,69,28,673,69,2014-10-02T00:55:00,0,28192845,188198
OK,69,28,673,69,2014-10-02T01:00:00,0,28193265,188198
OK,69,28,673,69,2014-10-02T01:05:00,0,28193656,188198
OK,69,28,673,69,2014-10-02T01:10:00,0,28194105,188198
OK,69,28,673,69,2014-10-02T01:15:00,0,28194554,188198
OK,69,28,673,69,2014-10-02T01:20:00,0,28194994,188198
OK,69,28,673,69,2014-10-02T01:25:00,0,28195239,188198
OK,69,28,673,69,2014-10-02T01:30:00,0,28195688,188198
OK,69,28,673,69,2014-10-02T01:35:00,0,28196137,188198
OK,69,28,673,69,2014-10-02T01:40:00,0,28196421,188198
OK,69,28,673,69,2014-10-02T01:45:00,0,28196870,188198
OK,69,28,673,69,2014-10-02T01:50:00,0,28197293,188198
OK,69,28,673,69,2014-10-02T01:55:00,0,28197742,188198
OK,69,28,673,69,2014-10-02T02:00:00,0,28198190,188198
OK,69,28,673,69,2014-10-02T02:05:00,0,28198638,188198
OK,69,28,673,69,2014-10-02T02:10:00,0,28199087,188198
OK,74,26,673,74,2014-10-02T02:15:00,1,28199459,188198
OK,74,26,673,74,2014-10-02T02:20:00,0,28199901,188198
OK,74,26,673,74,2014-10-02T02:25:00,0,28200343,188198
OK,59,32,673,59,2014-10-02T02:30:00,1,28200786,188198
OK,59,32,673,59,2014-10-02T02:35:00,0,28201235,188198
OK,59,32,673,59,2014-10-02T02:45:00,0,28201666,188198
OK,185,10,673,185,2014-10-02T02:50:00,1,28202115,188198
OK,185,10,673,185,2014-10-02T02:55:00,0,28202564,188198
OK,185,10,673,185,2014-10-02T03:00:00,0,28203006,188198
OK,185,10,673,185,2014-10-02T03:05:00,0,28203454,188198
OK,185,10,673,185,2014-10-02T03:15:00,0,28203889,188198
OK,185,10,673,185,2014-10-02T03:30:00,0,28204338,188198
OK,185,10,673,185,2014-10-02T03:35:00,0,28204787,188198
OK,185,10,673,185,2014-10-02T03:40:00,0,28205236,188198
OK,185,10,673,185,2014-10-02T03:45:00,0,28205664,188198
OK,185,10,673,185,2014-10-02T03:50:00,0,28206093,188198
OK,185,10,673,185,2014-10-02T03:55:00,0,28206494,188198
OK,51,38,673,51,2014-10-02T04:00:00,1,28206943,188198
OK,51,38,673,51,2014-10-02T04:05:00,0,28207392,188198
OK,51,38,673,51,2014-10-02T04:10:00,0,28207811,188198
OK,51,38,673,51,2014-10-02T04:15:00,0,28208260,188198
OK,51,38,673,51,2014-10-02T04:20:00,0,28208687,188198
OK,51,38,673,51,2014-10-02T04:25:00,0,28209136,188198
OK,51,38,673,51,2014-10-02T04:30:00,0,28209574,188198
OK,51,38,673,51,2014-10-02T04:35:00,0,28210023,188198
OK,52,37,673,52,2014-10-02T04:40:00,1,28210446,188198
OK,52,37,673,52,2014-10-02T04:45:00,0,28210895,188198
OK,52,37,673,52,2014-10-02T04:50:00,0,28211320,188198
OK,50,38,673,50,2014-10-02T04:55:00,4,28211764,188198
OK,50,38,673,50,2014-10-02T05:00:00,4,28212142,188198
OK,46,42,673,46,2014-10-02T05:05:00,2,28212591,188198
OK,49,39,673,49,2014-10-02T05:10:00,0,28213020,188198
OK,80,24,673,80,2014-10-02T05:15:00,2,28213469,188198
OK,90,21,673,90,2014-10-02T05:20:00,1,28213907,188198
OK,90,21,673,90,2014-10-02T05:25:00,0,28214356,188198
OK,90,21,673,90,2014-10-02T05:30:00,0,28214769,188198
OK,90,21,673,90,2014-10-02T05:35:00,0,28215218,188198
OK,75,25,673,75,2014-10-02T05:40:00,1,28215634,188198
OK,75,25,673,75,2014-10-02T05:45:00,1,28216083,188198
OK,75,25,673,75,2014-10-02T05:50:00,0,28216422,188198
OK,236,8,673,236,2014-10-02T05:55:00,2,28216862,188198
OK,314,6,673,314,2014-10-02T06:00:00,2,28217309,188198
OK,339,5,673,339,2014-10-02T06:05:00,1,28217758,188198
OK,339,5,673,339,2014-10-02T06:10:00,0,28218197,188198
OK,245,7,673,245,2014-10-02T06:15:00,3,28218646,188198
OK,189,10,673,189,2014-10-02T06:20:00,6,28219066,188198
OK,110,17,673,110,2014-10-02T06:25:00,4,28219515,188198
OK,86,22,673,86,2014-10-02T06:30:00,6,28219888,188198
OK,103,18,673,103,2014-10-02T06:35:00,7,28220337,188198
OK,71,27,673,71,2014-10-02T06:40:00,1,28220771,188198
OK,98,19,673,98,2014-10-02T06:45:00,1,28221220,188198
OK,99,19,673,99,2014-10-02T07:00:00,1,28221887,188198
OK,113,17,673,113,2014-10-02T07:05:00,3,28222032,188198
OK,113,17,673,113,2014-10-02T07:10:00,3,28222481,188198
OK,126,15,673,126,2014-10-02T07:15:00,0,28222930,188198
OK,126,15,673,126,2014-10-02T07:20:00,0,28223361,188198
OK,109,17,673,109,2014-10-02T07:25:00,2,28223796,188198
OK,125,15,673,125,2014-10-02T07:30:00,1,28224238,188198
OK,57,34,673,57,2014-10-02T07:35:00,0,28224599,188198
OK,57,34,673,57,2014-10-02T07:40:00,0,28225048,188198
OK,57,34,673,57,2014-10-02T07:45:00,0,28225460,188198
OK,83,23,673,83,2014-10-02T07:50:00,6,28225819,188198
OK,83,23,673,83,2014-10-02T07:55:00,6,28226268,188198
OK,104,18,673,104,2014-10-02T08:00:00,0,28226709,188198
OK,108,18,673,108,2014-10-02T08:05:00,3,28227158,188198
OK,108,18,673,108,2014-10-02T08:10:00,3,28227573,188198
OK,58,33,673,58,2014-10-02T08:15:00,1,28228022,188198
OK,58,33,673,58,2014-10-02T08:20:00,0,28228381,188198
OK,100,19,673,100,2014-10-02T08:25:00,3,28228830,188198
OK,100,19,673,100,2014-10-02T08:30:00,1,28229240,188198
OK,111,17,673,111,2014-10-02T08:35:00,2,28229689,188198
OK,44,44,673,44,2014-10-02T08:40:00,1,28230039,188198
OK,44,44,673,44,2014-10-02T08:45:00,0,28230488,188198
OK,42,46,673,42,2014-10-02T08:50:00,3,28230854,188198
OK,41,47,673,41,2014-10-02T08:55:00,2,28231301,188198
OK,51,38,673,51,2014-10-02T09:00:00,4,28231726,188198
OK,45,43,673,45,2014-10-02T09:05:00,2,28232172,188198
OK,103,18,673,103,2014-10-02T09:15:00,1,28232517,188198
OK,103,18,673,103,2014-10-02T09:20:00,0,28232966,188198
OK,103,18,673,103,2014-10-02T09:25:00,0,28233415,188198
OK,103,18,673,103,2014-10-02T09:30:00,0,28233839,188198
OK,99,19,673,99,2014-10-02T09:35:00,3,28234284,188198
OK,97,20,673,97,2014-10-02T09:40:00,2,28234621,188198
OK,68,28,673,68,2014-10-02T09:45:00,3,28235070,188198
OK,68,28,673,68,2014-10-02T09:50:00,0,28235497,188198
OK,66,29,673,66,2014-10-02T09:55:00,4,28235946,188198
OK,60,32,673,60,2014-10-02T10:00:00,0,28236389,188198
OK,60,32,673,60,2014-10-02T10:05:00,0,28236836,188198
OK,74,26,673,74,2014-10-02T10:10:00,1,28237238,188198
OK,74,26,673,74,2014-10-02T10:15:00,1,28237686,188198
OK,74,26,673,74,2014-10-02T10:20:00,0,28238135,188198
OK,74,26,673,74,2014-10-02T10:25:00,0,28238582,188198
OK,74,26,673,74,2014-10-02T10:30:00,0,28239023,188198
OK,66,29,673,66,2014-10-02T10:35:00,6,28239472,188198
OK,93,20,673,93,2014-10-02T10:40:00,4,28239902,188198
OK,93,20,673,93,2014-10-02T10:45:00,4,28240351,188198
OK,75,25,673,75,2014-10-02T10:50:00,2,28240795,188198
OK,74,26,673,74,2014-10-02T10:55:00,2,28241244,188198
OK,70,27,673,70,2014-10-02T11:00:00,1,28241676,188198
OK,70,27,673,70,2014-10-02T11:05:00,0,28242124,188198
OK,93,20,673,93,2014-10-02T11:10:00,1,28242520,188198
OK,93,20,673,93,2014-10-02T11:15:00,1,28242969,188198
OK,101,19,673,101,2014-10-02T11:20:00,3,28243418,188198
OK,101,19,673,101,2014-10-02T11:25:00,0,28243743,188198
OK,101,19,673,101,2014-10-02T11:30:00,0,28244181,188198
OK,39,49,673,39,2014-10-02T11:35:00,1,28244610,188198
OK,39,49,673,39,2014-10-02T11:40:00,0,28245059,188198
OK,39,49,673,39,2014-10-02T11:45:00,0,28245508,188198
OK,39,49,673,39,2014-10-02T11:50:00,0,28245914,188198
OK,78,24,673,78,2014-10-02T11:55:00,2,28246363,188198
OK,90,21,673,90,2014-10-02T12:00:00,3,28246800,188198
OK,128,15,673,128,2014-10-02T12:05:00,1,28247248,188198
OK,128,15,673,128,2014-10-02T12:10:00,0,28247695,188198
OK,68,28,673,68,2014-10-02T12:15:00,2,28248125,188198
OK,70,27,673,70,2014-10-02T12:20:00,1,28248574,188198
OK,156,12,673,156,2014-10-02T12:25:00,2,28249021,188198
OK,156,12,673,156,2014-10-02T12:30:00,0,28249449,188198
OK,87,22,673,87,2014-10-02T12:35:00,2,28249893,188198
OK,116,16,673,116,2014-10-02T12:40:00,1,28250279,188198
OK,88,22,673,88,2014-10-02T12:45:00,3,28250710,188198
OK,191,10,673,191,2014-10-02T13:20:00,3,28251570,188198
OK,94,20,673,94,2014-10-02T13:25:00,1,28251647,188198
OK,96,20,673,96,2014-10-02T13:30:00,3,28252035,188198
OK,96,20,673,96,2014-10-02T13:35:00,1,28252172,188198
OK,96,20,673,96,2014-10-02T13:40:00,0,28252619,188198
OK,97,20,673,97,2014-10-02T13:45:00,1,28253061,188198
OK,97,20,673,97,2014-10-02T13:50:00,0,28253478,188198
OK,72,27,673,72,2014-10-02T13:55:00,3,28253927,188198
OK,164,11,673,164,2014-10-02T14:10:00,2,28254658,188198
OK,185,10,673,185,2014-10-02T14:15:00,1,28254781,188198
OK,186,10,673,186,2014-10-02T14:20:00,1,28255230,188198
OK,186,10,673,186,2014-10-02T14:25:00,1,28255679,188198
OK,170,11,673,170,2014-10-02T14:30:00,4,28256107,188198
OK,104,18,673,104,2014-10-02T14:35:00,3,28256556,188198
OK,179,10,673,179,2014-10-02T14:40:00,2,28256984,188198
OK,161,12,673,161,2014-10-02T14:45:00,2,28257433,188198
OK,182,10,673,182,2014-10-02T14:50:00,1,28257874,188198
OK,182,10,673,182,2014-10-02T14:55:00,0,28258322,188198
OK,154,12,673,154,2014-10-02T15:00:00,1,28258755,188198
OK,119,16,673,119,2014-10-02T15:05:00,3,28259201,188198
OK,82,23,673,82,2014-10-02T15:10:00,3,28259649,188198
OK,82,23,673,82,2014-10-02T15:15:00,1,28260097,188198